COSMOS 1331

导读

COSMOS 1331(宇宙1331)是苏联“宇宙”号卫星系列中的一颗人造卫星,于1982年1月7日由独立国家联合体(CIS)发射升空。“宇宙”号卫星系列是世界上卫星数量最多的卫星系列,混编各类应用卫星、科学卫星与技术试验卫星,其中多数为军用卫星,也包含气象、遥感等多类用途卫星,在航天探索与应用领域发挥了多样作用。

Basic Information
目录编号:
13027
目录名称:
COSMOS 1331
国际标识:
1982-001A
轨道中心:
EARTH
卫星名称:
COSMOS 1331
卫星全名:
--
卫星状态:
在轨 (已飞行16301 天)
发射日期:
1982-01-07 UTC
国别 :
俄罗斯(独联体) (CIS)
星等 :
--
Orbit Information
数据来源 国际轨道数据
星历时间: 2026-08-25T18:03:02+0800
9小时前
查看轨道信息
半长轴: 7144.093km
偏心率: 0.0024392
轨道倾角: 74.048°
近地点辐角 315.063°
升交点赤经 28.521°
平近点角 44.855°
近地点: 748.53km
远地点: 783.382km
周期: 100.157分钟
每日圈数: 14.37746
Detailed Information
使用方式:
暂无
2D Orbit Map
3D Orbit Map
Orbit Altitude Analysis Chart
Orbit Inclination Analysis Chart
Orbit Comprehensive Analysis Chart
View Comprehensive Chart